Home > Weather > Playa del Carmen > Past weeks

Flag for Mexico Past Weather in Playa del Carmen, Quintana Roo, Mexico — Yesterday and Last 2 Weeks

Now
82 °F

Broken clouds.


Feels Like: 91 °F
Forecast: 79 / 89 °F
Wind: 7 mph from Southeast

Location: Cozumel Civ / Mil

Current Time: Jun 25, 2016 at 12:51:38 PM

Latest Report: Jun 25, 2016 at 10:40 AM


Visibility: 8 mi

Pressure: 30.03 "Hg

Humidity: 84%

Dew Point: 77 °F

Location of Playa del CarmenLocation

Past Weather in Playa del Carmen — Graph

°F

Playa del Carmen Temperature Yesterday

Maximum temperature yesterday: 84 °F (at 1:40 PM)
Minimum temperature yesterday: 73 °F (at 2:41 AM)
Average temperature yesterday: 78 °F

High & Low Weather Summary for the Past Weeks

 TemperatureHumidityPressure
High88 °F (Jun 12, 2:50 PM)100% (Jun 10, 9:46 PM)30.12 "Hg (Jun 10, 9:46 PM)
Low66 °F (Jun 18, 6:52 PM)66% (Jun 12, 11:40 AM)29.55 "Hg (Jun 22, 3:41 AM)
Average77 °F91%30.01 "Hg
* Reported Jun 10 10:41 AM — Jun 25 10:40 AM, Playa del Carmen, Weather by CustomWeather, © 2016

Note: Actual official high and low records may vary slightly from our data, if they occured in-between our weather recording intervals... More about our weather records

Advertising

Playa del Carmen Weather History for the Previous 24 Hours

Scroll right to see more
 ConditionsComfort  
Time TempWeatherWind HumidityBarometerVisibility
10:40 AM
Sat, Jun 25
82 °FBroken clouds.7 mph84%30.03 "Hg8 mi
7:49 AM77 °FScattered clouds.No wind94%30.00 "Hg8 mi
6:45 AM70 °FPassing clouds.No wind100%29.98 "Hg8 mi
5:48 AM72 °FPassing clouds.No wind100%29.98 "Hg7 mi
3:46 AM72 °FThunderstorms. Passing clouds.5 mph100%30.01 "Hg7 mi
3:01 AM72 °FPassing clouds.No wind100%29.99 "Hg7 mi
1:55 AM72 °FPassing clouds.No wind100%30.00 "Hg7 mi
12:49 AM73 °FPassing clouds.No wind100%30.00 "Hg7 mi
11:44 PM
Fri, Jun 24
75 °FRain. Passing clouds.8 mph100%30.02 "Hg3 mi
10:48 PM77 °FPassing clouds.5 mph100%30.03 "Hg7 mi
9:48 PM77 °FPassing clouds.5 mph100%30.03 "Hg7 mi
7:43 PM79 °FScattered clouds.6 mph94%29.97 "Hg8 mi
5:46 PM82 °FScattered clouds.12 mph84%29.98 "Hg8 mi
4:45 PM84 °FBroken clouds.10 mph79%29.99 "Hg8 mi
3:46 PM82 °FBroken clouds.8 mph79%30.02 "Hg8 mi
2:43 PM84 °FBroken clouds.10 mph79%30.01 "Hg8 mi
1:40 PM84 °FBroken clouds.14 mph84%30.03 "Hg8 mi
Weather by CustomWeather, © 2016

See weather overviewHow to use our weather pages